Location: Unspecified
(43.4680°N, 87.1740°E)
Time: 20:37:56
(UTC+00:00)

Cosmos 2112 Rocket - Pass Details

Date: 17 April 2021
Orbit: 755 x 787 km, 74.1° (Epoch: 12 May)

Event Time Altitude Azimuth Distance (km) Brightness Sun altitude
Rises 20:50:32 0° 342° (NNW) 3,263 7.6 -24.7°
Reaches altitude 10° 20:52:56 10° 345° (NNW) 2,336 6.9 -24.4°
Maximum altitude 20:58:13 65° 67° (ENE) 858 4.4 -23.7°
Drops below altitude 10° 21:03:30 10° 150° (SSE) 2,337 6.4 -23.0°
Enters shadow 21:05:34 - 153° (SSE) 3,131 7.0 -22.7°
